Change the Weather History Date:

Sunday, May 17, 2009

  Actual Average Record
Temperature  
Mean Temperature 65 °F -  
Max Temperature 72 °F 70 °F 88 °F (2008)
Min Temperature 59 °F 59 °F 51 °F (2011)
Growing Degree Days 15 (Base 50)    
Moisture  
Dew Point 60 °F    
Average Humidity 89    
Maximum Humidity 100    
Minimum Humidity 66    
Precipitation  
Precipitation 0.00 in - - ()
Sea Level Pressure  
Sea Level Pressure 29.94 in    
Wind  
Wind Speed 4 mph (South)    
Max Wind Speed 13 mph    
Max Gust Speed -    
Visibility 5 miles    
Events      
Averages and records for this station are not official NWS values.
T = Trace of Precipitation, MM = Missing Value Source: NWS Daily Summary

Daily Weather History Graph

Daily Weather History Graph

Search for Another Location

Airport or City:

Trip Planner

Search our weather history database for the weather conditions in past years. The results will help you decide how hot, cold, wet, or windy it might be!

Date:

Astronomy

May. 17, 2009 Rise Set
Actual Time 5:49 AM PDT 7:48 PM PDT
Civil Twilight 5:21 AM PDT 8:15 PM PDT
Nautical Twilight 4:48 AM PDT 8:49 PM PDT
Astronomical Twilight 4:12 AM PDT 9:25 PM PDT
Moon 1:33 AM PDT (5/17) 1:02 PM PDT (5/17)
Length of Visible Light 14h 53m
Length of Day
13h 58m
Last Quarter, 45% of the Moon is Illuminated
May 17
Last Quarter
May 24
New
May 30
First Quarter
Jun 7
Full
Jun 15
Last Quarter

Hourly Weather History & Observations

Time (PDT) Temp. Dew Point Humidity Pressure Visibility Wind Dir Wind Speed Gust Speed Precip Events Conditions
12:55 AM 60.3 °F 59.5 °F 97% 29.92 in 4.0 mi WSW 3.5 mph - N/A   Clear
1:55 AM 59.9 °F 59.4 °F 98% 29.91 in 3.0 mi SSE 3.5 mph - N/A   Clear
2:55 AM 60.1 °F 59.9 °F 99% 29.91 in 3.0 mi Calm Calm - N/A   Clear
3:47 AM 60.8 °F 60.8 °F 100% 29.91 in 2.5 mi South 4.6 mph - N/A   Clear
3:52 AM 60.8 °F 60.8 °F 100% 29.92 in 2.5 mi South 4.6 mph - N/A   Partly Cloudy
3:55 AM 61.2 °F 60.8 °F 99% 29.91 in 2.5 mi South 3.5 mph - N/A   Scattered Clouds
3:58 AM 60.8 °F 60.8 °F 100% 29.91 in 2.5 mi South 4.6 mph - N/A   Scattered Clouds
4:00 AM 60.8 °F 60.8 °F 100% 29.91 in 2.5 mi South 4.6 mph - N/A   Mostly Cloudy
4:08 AM 60.8 °F 60.8 °F 100% 29.91 in 2.5 mi SSW 5.8 mph - N/A   Mostly Cloudy
4:14 AM 60.8 °F 60.8 °F 100% 29.91 in 2.5 mi SW 4.6 mph - N/A   Mostly Cloudy
4:35 AM 60.8 °F 60.8 °F 100% 29.91 in 2.5 mi Calm Calm - N/A   Mostly Cloudy
4:55 AM 61.7 °F 61.5 °F 99% 29.91 in 3.0 mi Calm Calm - N/A   Overcast
5:45 AM 62.6 °F 60.8 °F 94% 29.92 in 2.5 mi Calm Calm - N/A   Overcast
5:53 AM 62.6 °F 60.8 °F 94% 29.92 in 1.8 mi Calm Calm - N/A   Overcast
5:55 AM 61.9 °F 61.3 °F 98% 29.93 in 1.8 mi Calm Calm - N/A   Overcast
6:02 AM 62.6 °F 60.8 °F 94% 29.93 in 1.8 mi Calm Calm - N/A   Overcast
6:10 AM 62.6 °F 60.8 °F 94% 29.94 in 1.8 mi Calm Calm - N/A   Overcast
6:42 AM 62.6 °F 60.8 °F 94% 29.95 in 1.8 mi SSE 4.6 mph - N/A   Overcast
6:55 AM 62.2 °F 61.2 °F 96% 29.95 in 2.0 mi Calm Calm - N/A   Overcast
7:31 AM 62.6 °F 60.8 °F 94% 29.96 in 2.5 mi South 4.6 mph - N/A   Overcast
7:32 AM 62.6 °F 60.8 °F 94% 29.96 in 2.5 mi South 4.6 mph - N/A   Overcast
7:36 AM 62.6 °F 60.8 °F 94% 29.96 in 2.5 mi South 5.8 mph - N/A   Overcast
7:55 AM 62.6 °F 60.6 °F 93% 29.97 in 3.0 mi SSW 3.5 mph - N/A   Overcast
8:55 AM 63.3 °F 60.3 °F 90% 29.98 in 3.0 mi SW 3.5 mph - N/A   Overcast
9:55 AM 63.9 °F 59.9 °F 87% 29.99 in 4.0 mi South 4.6 mph - N/A   Haze
10:41 AM 64.4 °F 59.0 °F 83% 30.00 in 5.0 mi Variable 4.6 mph - N/A   Haze
10:55 AM 65.5 °F 59.2 °F 80% 30.00 in 5.0 mi SSW 8.1 mph - N/A   Haze
11:14 AM 66.2 °F 59.0 °F 78% 30.00 in 6.0 mi South 6.9 mph - N/A   Haze
11:55 AM 68.0 °F 59.0 °F 73% 29.99 in 6.0 mi SW 6.9 mph - N/A   Haze
12:10 PM 68.0 °F 59.0 °F 73% 29.99 in 10.0 mi South 5.8 mph - N/A   Scattered Clouds
12:55 PM 70.0 °F 59.2 °F 68% 29.98 in 10.0 mi South 6.9 mph - N/A   Partly Cloudy
1:55 PM 71.1 °F 59.4 °F 66% 29.96 in 10.0 mi South 9.2 mph - N/A   Partly Cloudy
2:55 PM 71.8 °F 60.1 °F 67% 29.94 in 10.0 mi South 10.4 mph - N/A   Partly Cloudy
3:55 PM 71.6 °F 61.2 °F 70% 29.92 in 9.0 mi South 12.7 mph - N/A   Clear
4:55 PM 70.5 °F 61.0 °F 72% 29.91 in 10.0 mi South 10.4 mph - N/A   Clear
5:55 PM 69.8 °F 60.8 °F 73% 29.89 in 10.0 mi South 8.1 mph - N/A   Clear
6:55 PM 67.3 °F 60.3 °F 78% 29.89 in 10.0 mi South 6.9 mph - N/A   Clear
7:55 PM 64.6 °F 59.7 °F 84% 29.91 in 10.0 mi SSE 3.5 mph - N/A   Clear
8:55 PM 63.1 °F 59.9 °F 89% 29.93 in 10.0 mi South 4.6 mph - N/A   Clear
9:55 PM 62.4 °F 59.9 °F 91% 29.94 in 8.0 mi Calm Calm - N/A   Clear
10:55 PM 61.5 °F 58.8 °F 91% 29.95 in 7.0 mi WNW 3.5 mph - N/A   Clear
11:55 PM 61.5 °F 59.2 °F 92% 29.95 in 6.0 mi West 3.5 mph - N/A   Clear